Portada
METAR-TAF:

METAR-TAF

Aeroports :

Milton, Massachusetts, Estats Units d'Amèrica

latitud: 42-12-44N, longitud: 071-06-53W, altitud: 192 m

Observació

L'informe es va fer fa 28 minuts, a les 00:51 UTC
Vent 14 kt del Oest/Nord-Oest amb ràfegues de 30 kt
Temperatura -2°C
Humitat 39%
Pressió 1003 hPa

METAR: KMQE 050051Z AUTO 30014G30KT M02/M14 A2962 RMK AO1 PK WND 29035/2355 SLP045 T10221144

Hora: 20:19 (01:19 UTC)


TAF: manca

Observacions i pronòstics meteorològics de més de 4000 aeroports (METAR i TAF).

Les estacions disponibles són els punts grocs i vermells al mapa.

Posi el ratolí al punt desitjat per veure el nom de l'estació.

Feu clic per veure les observacions i els pronòstics meteorològics.

Per canviar el mapa: feu clic els botons verds amb una creu de color negre per apropar; al botó verd amb un guió per allunyar la imatge; o en les fletxes verdes per a mapes adjacents.


METAR-TAF: